Change the Weather History Date:

Thursday, July 25, 2013

  Actual Average Record
Temperature  
Mean Temperature 70 °F -  
Max Temperature 78 °F 84 °F 89 °F (2011)
Min Temperature 62 °F 60 °F 55 °F (2010)
Cooling Degree Days 5    
Growing Degree Days 20 (Base 50)    
Moisture  
Dew Point 66 °F    
Average Humidity 88    
Maximum Humidity 100    
Minimum Humidity 57    
Precipitation  
Precipitation 0.00 in - - ()
Sea Level Pressure  
Sea Level Pressure 30.01 in    
Wind  
Wind Speed 7 mph (WNW)    
Max Wind Speed 10 mph    
Max Gust Speed 17 mph    
Visibility 10 miles    
Events Rain    
Averages and records for this station are not official NWS values.
T = Trace of Precipitation, MM = Missing Value Source: NWS Daily Summary

Daily Weather History Graph

Daily Weather History Graph

Search for Another Location

Airport or City:

Trip Planner

Search our weather history database for the weather conditions in past years. The results will help you decide how hot, cold, wet, or windy it might be!

Date:

Astronomy

Jul. 25, 2013 Rise Set
Actual Time 6:09 AM CDT 8:59 PM CDT
Civil Twilight 5:35 AM CDT 9:33 PM CDT
Nautical Twilight 4:52 AM CDT 10:16 PM CDT
Astronomical Twilight 4:02 AM CDT 11:05 PM CDT
Moon 10:30 PM CDT (7/25) 9:49 AM CDT (7/25)
Length of Visible Light 15h 57m
Length of Day
14h 50m
Waning Gibbous, 88% of the Moon is Illuminated
Jul 25
Waning Gibbous
Jul 29
Last Quarter
Aug 6
New
Aug 14
First Quarter
Aug 20
Full

Hourly Weather History & Observations

Time (CDT) Temp. Dew Point Humidity Pressure Visibility Wind Dir Wind Speed Gust Speed Precip Events Conditions
12:10 AM 64.4 °F 64.4 °F 100% 30.03 in 10.0 mi SSW 4.6 mph - N/A   Clear
12:30 AM 64.4 °F 64.4 °F 100% 30.03 in 10.0 mi SSW 4.6 mph - N/A   Clear
12:50 AM 64.4 °F 62.6 °F 94% 30.03 in 10.0 mi SSW 6.9 mph - N/A   Clear
1:10 AM 64.4 °F 62.6 °F 94% 30.03 in 10.0 mi SW 6.9 mph - N/A   Clear
1:30 AM 64.4 °F 62.6 °F 94% 30.03 in 10.0 mi SSW 5.8 mph - N/A   Partly Cloudy
1:50 AM 64.4 °F 64.4 °F 100% 30.03 in 10.0 mi SSW 6.9 mph - N/A   Partly Cloudy
2:10 AM 64.4 °F 64.4 °F 100% 30.03 in 10.0 mi SSW 5.8 mph - N/A   Clear
2:30 AM 64.4 °F 62.6 °F 94% 30.03 in 10.0 mi SSW 6.9 mph - N/A   Clear
2:50 AM 64.4 °F 64.4 °F 100% 30.02 in 10.0 mi SSW 8.1 mph - N/A   Clear
3:10 AM 64.4 °F 64.4 °F 100% 30.01 in 10.0 mi SW 5.8 mph - N/A   Clear
3:30 AM 64.4 °F 64.4 °F 100% 30.00 in 10.0 mi SSW 6.9 mph - N/A   Clear
3:50 AM 64.4 °F 64.4 °F 100% 30.00 in 10.0 mi SW 6.9 mph - N/A   Clear
4:10 AM 64.4 °F 64.4 °F 100% 30.00 in 10.0 mi SW 10.4 mph - N/A   Clear
4:30 AM 66.2 °F 66.2 °F 100% 30.01 in 10.0 mi SW 9.2 mph - N/A   Clear
4:50 AM 66.2 °F 66.2 °F 100% 30.00 in 10.0 mi SW 8.1 mph - N/A   Clear
5:10 AM 64.4 °F 64.4 °F 100% 30.01 in 10.0 mi SW 6.9 mph - N/A   Clear
5:30 AM 64.4 °F 64.4 °F 100% 30.01 in 10.0 mi WSW 6.9 mph - N/A   Clear
5:50 AM 64.4 °F 64.4 °F 100% 30.01 in 10.0 mi SW 6.9 mph - N/A   Clear
6:10 AM 62.6 °F 62.6 °F 100% 30.02 in 10.0 mi WSW 5.8 mph - N/A   Clear
6:30 AM 64.4 °F 64.4 °F 100% 30.02 in 10.0 mi SW 6.9 mph - N/A   Clear
6:50 AM 66.2 °F 66.2 °F 100% 30.01 in 10.0 mi SW 6.9 mph - N/A   Clear
7:10 AM 66.2 °F 66.2 °F 100% 30.00 in 10.0 mi SW 8.1 mph - N/A   Clear
7:30 AM 68.0 °F 68.0 °F 100% 30.00 in 10.0 mi SSW 8.1 mph - N/A   Clear
7:50 AM 68.0 °F 68.0 °F 100% 30.00 in 10.0 mi SSW 9.2 mph - N/A   Clear
8:10 AM 68.0 °F 68.0 °F 100% 29.99 in 10.0 mi SSW 9.2 mph - N/A   Clear
8:30 AM 68.0 °F 68.0 °F 100% 29.99 in 10.0 mi SSW 9.2 mph - N/A   Clear
8:50 AM 71.6 °F 69.8 °F 94% 30.00 in 10.0 mi SW 6.9 mph - N/A   Clear
9:10 AM 71.6 °F 69.8 °F 94% 30.00 in 10.0 mi SW 5.8 mph - N/A   Clear
9:30 AM 73.4 °F 71.6 °F 94% 30.00 in 10.0 mi SSW 8.1 mph - N/A   Clear
9:50 AM 73.4 °F 71.6 °F 94% 30.01 in 10.0 mi WSW 6.9 mph 17.3 mph N/A   Clear
10:10 AM 73.4 °F 71.6 °F 94% 30.00 in 10.0 mi WSW 4.6 mph - N/A   Clear
10:30 AM 73.4 °F 71.6 °F 94% 30.01 in 10.0 mi West 6.9 mph - N/A   Clear
10:50 AM 73.4 °F 71.6 °F 94% 30.02 in 10.0 mi NNW 5.8 mph - N/A   Clear
11:10 AM 73.4 °F 71.6 °F 94% 30.02 in 10.0 mi NW 5.8 mph - N/A   Partly Cloudy
11:30 AM 73.4 °F 71.6 °F 94% 30.02 in 10.0 mi North 6.9 mph - N/A   Partly Cloudy
11:50 AM 73.4 °F 71.6 °F 94% 30.02 in 10.0 mi North 5.8 mph - N/A   Clear
12:10 PM 73.4 °F 71.6 °F 94% 30.02 in 10.0 mi North 5.8 mph - N/A   Clear
12:30 PM 75.2 °F 71.6 °F 89% 30.01 in 10.0 mi North 6.9 mph - N/A   Clear
12:50 PM 75.2 °F 68.0 °F 78% 30.01 in 10.0 mi NE 8.1 mph - N/A   Clear
1:10 PM 77.0 °F 68.0 °F 74% 30.01 in 10.0 mi NE 8.1 mph - N/A   Clear
1:30 PM 77.0 °F 66.2 °F 69% 30.01 in 10.0 mi NE 8.1 mph - N/A   Clear
1:50 PM 75.2 °F 66.2 °F 73% 30.00 in 10.0 mi North 6.9 mph - N/A   Clear
2:10 PM 77.0 °F 66.2 °F 69% 30.00 in 10.0 mi NE 5.8 mph - N/A   Clear
2:30 PM 77.0 °F 66.2 °F 69% 29.99 in 10.0 mi NE 9.2 mph - N/A   Clear
2:50 PM 78.8 °F 66.2 °F 65% 29.99 in 10.0 mi NNE 9.2 mph - N/A   Clear
3:10 PM 77.0 °F 64.4 °F 65% 29.99 in 10.0 mi North 9.2 mph - N/A   Clear
3:30 PM 77.0 °F 64.4 °F 65% 30.00 in 10.0 mi ENE 5.8 mph - N/A   Clear
3:50 PM 77.0 °F 66.2 °F 69% 30.00 in 10.0 mi ENE 4.6 mph - N/A   Clear
4:10 PM 77.0 °F 64.4 °F 65% 29.99 in 10.0 mi East 3.5 mph - N/A   Clear
4:30 PM 77.0 °F 64.4 °F 65% 29.99 in 10.0 mi NE 3.5 mph - N/A   Partly Cloudy
4:50 PM 78.8 °F 64.4 °F 61% 29.99 in 10.0 mi NNW 4.6 mph - N/A   Partly Cloudy
5:10 PM 78.8 °F 64.4 °F 61% 29.98 in 10.0 mi NW 6.9 mph - N/A   Clear
5:30 PM 77.0 °F 66.2 °F 69% 29.98 in 10.0 mi NNW 9.2 mph - N/A   Partly Cloudy
5:50 PM 77.0 °F 62.6 °F 61% 29.98 in 10.0 mi NNW 10.4 mph - N/A   Partly Cloudy
6:10 PM 77.0 °F 62.6 °F 61% 29.97 in 10.0 mi NNW 8.1 mph - N/A   Clear
6:30 PM 77.0 °F 60.8 °F 57% 29.97 in 10.0 mi North 8.1 mph - N/A   Clear
6:50 PM 75.2 °F 60.8 °F 61% 29.98 in 10.0 mi North 8.1 mph - N/A   Clear
7:10 PM 73.4 °F 62.6 °F 69% 29.99 in 10.0 mi North 5.8 mph - N/A   Clear
7:30 PM 75.2 °F 62.6 °F 65% 29.98 in 10.0 mi NNW 5.8 mph - N/A   Clear
7:50 PM 73.4 °F 64.4 °F 73% 29.99 in 10.0 mi NNW 6.9 mph - N/A   Clear
8:10 PM 71.6 °F 64.4 °F 78% 29.99 in 10.0 mi NNW 5.8 mph - N/A   Clear
8:30 PM 69.8 °F 64.4 °F 83% 29.99 in 10.0 mi North 6.9 mph - N/A   Scattered Clouds
8:50 PM 68.0 °F 64.4 °F 88% 30.00 in 10.0 mi NNW 4.6 mph - N/A   Scattered Clouds
9:10 PM 66.2 °F 66.2 °F 100% 30.01 in 10.0 mi NNW 6.9 mph - N/A   Overcast
9:30 PM 68.0 °F 66.2 °F 94% 30.02 in 10.0 mi North 4.6 mph - N/A Rain Light Rain
9:50 PM 66.2 °F 66.2 °F 100% 30.02 in 10.0 mi NNW 6.9 mph - N/A   Mostly Cloudy
10:10 PM 66.2 °F 66.2 °F 100% 30.02 in 10.0 mi NW 3.5 mph - N/A   Mostly Cloudy
10:30 PM 66.2 °F 66.2 °F 100% 30.02 in 10.0 mi NW 4.6 mph - N/A   Scattered Clouds
10:50 PM 64.4 °F 64.4 °F 100% 30.02 in 10.0 mi NW 4.6 mph - N/A   Clear
11:10 PM 64.4 °F 64.4 °F 100% 30.03 in 10.0 mi NW 6.9 mph - N/A   Mostly Cloudy
11:30 PM 64.4 °F 64.4 °F 100% 30.03 in 10.0 mi NW 8.1 mph - N/A   Overcast
11:50 PM 62.6 °F 62.6 °F 100% 30.04 in 10.0 mi NW 9.2 mph - N/A   Mostly Cloudy